Погода в Миядзаки

Япония     38°38′11″N   140°42′04″E
темп.,
°C
ветер,
м/с
пор.,
м/с
влажн.,
%
обл.,
%
осадки,
мм/ч
давл.,
гПа
погр.,
м
14 июня, пн
пн1400:00+16ссз1195100 0.0 101011
03:00+15ссз1195100 0.0 100911
06:00+18св11905 0.0 1009106
09:00+23вюв226414 0.0 1008936
12:00+24вюв336330 0.9 10081244
15:00+24юв3362100 1.8 10061163
18:00+19вюв1292100 0.9 100786
21:00+16св119873 4.5 100815
15 июня, вт
вт1500:00+16зсз119799 0.2 100716
03:00+16с0095100 0.2 100711
06:00+17сз009452 0.0 1007109
09:00+22юв2271100 0.2 1007777
12:00+23юв21664 1.1 10061122
15:00+22вюв337549 3.7 1006949
18:00+17вюв2496100 7.6 1007203
21:00+16св129963 12.5 100946
16 июня, ср
ср1600:00+17в1399100 0.1 1009343
03:00+16в12100100 0.4 1008145
06:00+17вюв23100100 0.7 1009172
09:00+18вюв249355 1.6 1009480
12:00+21юв447496 0.9 10091038
15:00+19вюв359197 2.9 1009669
18:00+17юв359558 1.1 1010462
21:00+15в2399100 1.4 1010105
17 июня, чт
чт1700:00+15св1199100 0.4 101076
03:00+14всв129998 0.4 100964
06:00+15в129778 0.0 1009197
09:00+19вюв346711 0.1 1008958
12:00+22вюв335287 0.0 10071513
15:00+22юв436460 0.1 10061301
18:00+18юв248339 0.1 1007458
21:00+15вюв1397100 0.1 1008174
18 июня, пт
пт1800:00+15вюв119797 0.1 1006126
03:00+14вюв129696 0.1 1006105
06:00+14вюв129596 0.1 1006222
09:00+15вюв129099 0.2 1006451
12:00+17юв2281100 0.1 1005754
15:00+17вюв3483100 0.2 1004850
18:00+15юв2591100 0.1 1005575
21:00+13в2495100 0.2 1007374